Flag for Croatia Weather past 2 weeks in Dubrovnik, Croatia

Now
63 °F

Passing clouds.


Feels Like: 63 °F
Forecast: 50 / 62 °F
Wind: 8 mph from Southwest

Location: Dubrovnik / Cilipi

Current Time: Apr 25, 2015 at 2:09:10 PM

Latest Report: Apr 25, 2015 at 2:00 PM


Visibility: N/A

Pressure: 30.09 "Hg

Humidity: 59%

Dew point: 48 °F

Location of DubrovnikLocation

Historic Weather in Dubrovnik — Graph

°F

Dubrovnik temperature yesterday

Maximum temperature yesterday: 63 °F (at 9:30 AM)
Minimum temperature yesterday: 54 °F (at 9:30 PM)
Average temperature yesterday: 58 °F

Past Weeks' High & Low Weather Summary

 TemperatureHumidityPressure
High68 °F (Apr 13, 9:30 AM)93% (Apr 12, 3:00 AM)30.39 "Hg (Apr 12, 3:00 AM)
Low41 °F (Apr 11, 4:30 AM)19% (Apr 21, 8:30 PM)29.89 "Hg (Apr 18, 3:00 PM)
Average58 °F57%30.14 "Hg
* Reported Apr 10 1:00 PM — Apr 25 1:00 PM, Dubrovnik, Weather by CustomWeather, © 2015

Note: Actual official high and low records may vary slightly from our data, if they occured in-between our weather recording intervals... More about our weather records

Advertising

Dubrovnik weather history for previous 24 hours

 ConditionsComfort  
Time TempWeatherWind HumidityBarometerVisibility
1:00 PM
Sat, Apr 25
64 °FPassing clouds.9 mph60%30.09 "HgN/A
12:30 PM63 °FPassing clouds.8 mph56%30.12 "HgN/A
12:00 PM63 °FPassing clouds.9 mph59%30.12 "HgN/A
11:30 AM63 °FPassing clouds.8 mph56%30.12 "HgN/A
11:00 AM63 °FPassing clouds.9 mph56%30.09 "HgN/A
10:30 AM63 °FPassing clouds.8 mph56%30.09 "HgN/A
10:00 AM61 °FPassing clouds.8 mph55%30.09 "HgN/A
9:30 AM63 °FPassing clouds.6 mph56%30.09 "HgN/A
9:00 AM61 °FPassing clouds.6 mph55%30.09 "HgN/A
8:30 AM61 °FPassing clouds.6 mph52%30.09 "HgN/A
8:00 AM59 °FPassing clouds.6 mph48%30.09 "HgN/A
7:30 AM55 °FSunny.8 mph55%30.09 "Hg10 mi
7:00 AM54 °FSunny.9 mph58%30.09 "Hg10 mi
6:30 AM48 °FClear.8 mph76%30.09 "Hg10 mi
6:00 AM50 °FClear.7 mph67%30.09 "Hg10 mi
5:30 AM50 °FPassing clouds.6 mph67%30.07 "HgN/A
5:00 AM52 °FClear.7 mph58%30.09 "Hg10 mi
4:30 AM50 °FClear.8 mph67%30.07 "Hg10 mi
4:00 AM52 °FClear.9 mph67%30.09 "Hg10 mi
3:30 AM54 °FClear.9 mph63%30.09 "Hg10 mi
3:00 AM52 °FClear.10 mph72%30.09 "Hg10 mi
2:30 AM52 °FClear.10 mph72%30.09 "Hg10 mi
2:00 AM54 °FClear.10 mph72%30.09 "Hg10 mi
1:30 AM54 °FClear.9 mph72%30.09 "Hg10 mi
1:00 AM54 °FClear.10 mph77%30.09 "Hg10 mi
12:30 AM54 °FClear.9 mph77%30.09 "Hg10 mi
12:00 AM54 °FPassing clouds.13 mph77%30.09 "HgN/A
11:00 PM
Fri, Apr 24
54 °FPassing clouds.13 mph82%30.09 "HgN/A
10:30 PM54 °FPassing clouds.12 mph88%30.09 "HgN/A
10:00 PM54 °FLight rain. Passing clouds.15 mph88%30.09 "HgN/A
9:30 PM54 °FLight rain. Passing clouds.15 mph88%30.09 "HgN/A
9:00 PM55 °FPassing clouds.16 mph82%30.09 "HgN/A
8:30 PM55 °FPartly sunny.12 mph82%30.09 "HgN/A
8:00 PM55 °FOvercast.18 mph82%30.09 "HgN/A
7:30 PM55 °FPartly sunny.13 mph88%30.07 "HgN/A
7:00 PM55 °FLight rain. Scattered clouds.15 mph88%30.07 "HgN/A
6:30 PM55 °FPartly sunny.17 mph88%30.07 "HgN/A
6:00 PM55 °FPartly sunny.16 mph88%30.07 "HgN/A
5:30 PM55 °FPartly sunny.16 mph88%30.07 "HgN/A
5:00 PM55 °FPartly sunny.16 mph88%30.07 "HgN/A
4:30 PM55 °FPartly sunny.14 mph88%30.07 "HgN/A
4:00 PM55 °FLight rain. Partly sunny.17 mph88%30.09 "HgN/A
3:30 PM57 °FLight rain. Scattered clouds.15 mph88%30.09 "HgN/A
3:00 PM57 °FLight rain. Scattered clouds.17 mph88%30.09 "HgN/A
2:30 PM57 °FBroken clouds.20 mph88%30.09 "HgN/A
2:00 PM57 °FBroken clouds.22 mph82%30.09 "HgN/A
Weather by CustomWeather, © 2015

See weather overviewHow to use our weather pages